Hourly Data Report for May 13, 2012

All times are specified in Local Standard Time (LST). Add 1 hour to adjust for Daylight Saving Time where and when it is observed.

ST. JOHN'S INTL A
NEWFOUNDLAND

47°37'07.000" N
52°45'09.000" W
140.50 m
8403505
71801
YYT

Download Data

Hourly Data (May 2012)
Hourly Data Report for May 13, 2012
Temp Definition
°C
Dew Point Temp Definition
°C
Rel Hum Definition
%
Wind Dir Definition
10's deg

Wind Spd Definition
km/h
Visibility Definition
km
Stn Press Definition
kPa
Hmdx Definition


Wind Chill Definition


Weather Definition


TIME
00:30 Legend Double Dagger 8.6 8.6 100 17 22 4.8 100.56     Drizzle,Fog
01:30 Legend Double Dagger 7.9 7.9 100 15 22 0.6 100.47     Drizzle,Fog
02:30 Legend Double Dagger 8.3 8.5 101 17 21 0.8 100.47     Rain,Fog
03:30 Legend Double Dagger 8.3 8.5 101 20 10 0.8 100.48     Drizzle,Fog
04:30 Legend Double Dagger 8.8 9.0 101 25 13 6.4 100.50     Rain,Fog
05:30 Legend Double Dagger 8.6 8.8 101 27 17 8.1 100.53     Rain,Fog
06:30 Legend Double Dagger 8.2 8.2 100 26 7 8.1 100.56     Drizzle,Fog
07:30 Legend Double Dagger 8.1 8.1 100   0 8.1 100.58     Rain,Fog
08:30 Legend Double Dagger 8.8 8.7 99   0 9.7 100.51     Rain,Fog
09:30 Legend Double Dagger 8.1 7.8 98 31 14 8.1 100.49     Rain,Fog
10:30 Legend Double Dagger 8.2 8.1 99 34 13 4.0 100.42     Rain,Fog
11:30 Legend Double Dagger 7.8 7.7 99 33 17 3.2 100.33     Rain,Fog
12:30 Legend Double Dagger 6.2 6.2 100 2 7 1.2 100.27     Rain,Fog
13:30 Legend Double Dagger 7.9 7.9 100 32 15 4.8 100.25     Rain,Fog
14:30 Legend Double Dagger 7.7 7.4 98 32 24 10.0 100.16     Cloudy
15:30 Legend Double Dagger 7.5 7.5 100 30 20 2.4 100.17     Fog
16:30 Legend Double Dagger 7.7 7.7 100 28 17 10.0 100.23     LegendNANA
17:30 Legend Double Dagger 8.3 8.0 98 26 17 10.0 100.26     Cloudy
18:30 Legend Double Dagger 8.7 8.1 96 24 16 10.0 100.32     Rain Showers
19:30 Legend Double Dagger 8.9 8.2 95 24 16 10.0 100.34     LegendNANA
20:30 Legend Double Dagger 8.7 6.5 86 26 21 10.0 100.39     Mostly Cloudy
21:30 Legend Double Dagger 7.8 5.6 86 25 22 10.0 100.42     LegendNANA
22:30 Legend Double Dagger 7.1 4.6 84 25 27 10.0 100.43     LegendNANA
23:30 Legend Double Dagger 6.4 4.1 85 25 24 10.0 100.48     Mainly Clear

Notes on Data Quality.

Legend

  • E = Estimated
  • M = Missing
  • NA = Not Available
  • ‡ = Partner data that is not subject to review by the National Climate Archives
Date modified: